Regional Weather Roundup
Issued by NWS

Home | Current Version | Previous Version | Graphics & Text | Print | Product List | Glossary On
Versions: 1 2 3 4 5 6 7 8 9 10 11 12 13 14 15 16 17 18 19 20 21 22 23 24 25 26 27 28 29 30 31 32 33 34 35 36 37 38 39 40 41 42 43 44 45 46 47 48 49 50
000
ASUS43 KLOT 271909
RWRIL

ILLINOIS REGIONAL WEATHER ROUNDUP
NATIONAL WEATHER SERVICE CHICAGO/ROMEOVILLE IL
200 PM CDT SAT MAY 27 2017

NOTE: "FAIR" INDICATES FEW OR NO CLOUDS BELOW 12,000 FEET WITH NO
SIGNIFICANT WEATHER AND/OR OBSTRUCTIONS TO VISIBILITY.

* THESE STATIONS ARE NOT UNDER NWS QUALITY CONTROL. THEY ALSO MAY NOT
  REPORT WEATHER SUCH AS PRECIPITATION OR FOG.

ILZ001-002-007-009-015-016-024-272000-
NORTHWEST ILLINOIS

CITY           SKY/WX    TMP DP  RH WIND       PRES   REMARKS
MOLINE         CLOUDY    74  61  63 VRB3      29.88F
STERLING*      MOSUNNY   72  63  73 VRB3      29.90F
SAVANNA*       CLOUDY    68  61  77 SW6       29.90F
$$

ILZ003-004-008-010-011-017-018-272000-
NORTH CENTRAL ILLINOIS

CITY           SKY/WX    TMP DP  RH WIND       PRES   REMARKS
ROCKFORD       PTSUNNY   74  61  63 VRB3      29.90F
FREEPORT*      PTSUNNY   71  61  72 SW6       29.92F
ROCHELLE*      MOSUNNY   72  62  68 CALM      29.90F
DE KALB*       MOSUNNY   73  62  69 CALM      29.91F
PERU*          CLOUDY    72  60  66 CALM      29.89F
$$

ILZ005-006-012>014-019>023-272000-
NORTHEAST ILLINOIS

CITY           SKY/WX    TMP DP  RH WIND       PRES   REMARKS
CHICAGO-OHARE  MOSUNNY   74  54  49 CALM      29.90S
CHICAGO-MIDWAY PTSUNNY   73  58  59 VRB5      29.90F
AURORA         MOSUNNY   75  62  64 CALM      29.90F
LANSING*       SUNNY     71  61  71 N3        29.91S
JOLIET*        SUNNY     76  61  59 CALM      29.90F
WAUKEGAN       SUNNY     69  56  62 SE8       29.90F
DUPAGE AIRPORT SUNNY     73  58  59 VRB3      29.89F
KANKAKEE*      SUNNY     80  62  53 CALM      29.90F HX  81
WHEELING       SUNNY     74  57  55 CALM      29.91F
MORRIS*        SUNNY     75  61  61 CALM      29.89F
ROMEOVILLE*    SUNNY     74  61  63 CALM      29.90F
$$

LMZ740>746-272000-
SOUTHERN LAKE MICHIGAN

STATION/POSITION SKY/WX   TEMP    WIND        PRES    VSBY  WAVE
                          AIR SEA DIR/SP/G                  HT/PER
                          (F)     (DEG/KT/KT) (MB)    (MI)  (FT/S)
SOUTHERN BUOY              53 50  310/  4/  4 1013.5S         0
WILMETTE HARBOR            56 54                N/A           0
HARRISON CRIB              57      10/  7/  7   N/A
BURNHAM HARBOR             58      40/  6/  7   N/A
CALUMET HARBOR             63     350/  5/  7 1012.6F
BURNS HARBOR               55     330/  5/  6 1013.9S
MICHIGAN CITY              56     270/  6/  7   N/A
MICHIGAN CITY 6N           52 56  320/  8/ 10   N/A           1
ST. JOSEPH                 58 60  330/  8/ 10 1013.1          1
$$

ILZ025>027-034>036-040-047-049-050-058-095>099-272000-
WEST-CENTRAL ILLINOIS

CITY           SKY/WX    TMP DP  RH WIND       PRES   REMARKS
QUINCY         MOSUNNY   77  63  61 E7        29.88F
GALESBURG*     CLOUDY    74  63  67 SW3       29.89F
MACOMB*        CLOUDY    73  64  72 E3        29.89F
JACKSONVILLE*  MOSUNNY   75  64  68 E7        29.87F
PITTSFIELD*    SUNNY     76  65  67 E8        29.88F
$$

ILZ028>032-037-038-041>044-048-051>054-059>061-272000-
CENTRAL ILLINOIS

CITY           SKY/WX    TMP DP  RH WIND       PRES   REMARKS
PONTIAC        MOSUNNY   75  66  72 SE5       29.90F
BLOOMINGTON    SUNNY     77  60  55 CALM      29.90F
DECATUR        MOSUNNY   72  64  76 E8        29.89F
PEORIA         CLOUDY    76  61  59 E6        29.88F
LACON*         CLOUDY    74  64  70 S5        29.88F
LINCOLN*       SUNNY     79  62  57 E7        29.88F HX  80
SPRINGFIELD    SUNNY     80  64  58 VRB7      29.87F HX  82
TAYLORVILLE    SUNNY     76  63  65 E6        29.88F
$$

ILZ033-039-045-046-055>057-062-063-272000-
EAST-CENTRAL ILLINOIS

CITY           SKY/WX    TMP DP  RH WIND       PRES   REMARKS
CHAMPAIGN      CLOUDY    69  62  78 VRB3      29.91F
RANTOUL*       CLOUDY    72  64  77 E5        29.90F
MATTOON        MOSUNNY   76  65  68 N6        29.87F
PARIS*         PTSUNNY   72  64  77 N5        29.90F
$$

ILZ079-100>102-272000-
SOUTHWEST ILLINOIS

CITY           SKY/WX    TMP DP  RH WIND       PRES   REMARKS
ALTON          PTSUNNY   77  64  65 E8        29.86F
CAHOKIA*       CLOUDY    79  66  64 E3        29.85F HX  81
SPARTA*        CLOUDY    79  69  70 SW3       29.88F HX  82
$$

ILZ064>066-069>071-074>076-080>082-084>086-088>090-092>094-272000-
SOUTH-CENTRAL ILLINOIS

CITY           SKY/WX    TMP DP  RH WIND       PRES   REMARKS
CARBONDALE     CLOUDY    82  71  69 SW10      29.85F HX  86
CAIRO*         MOSUNNY   83  71  65 SW8       29.87F HX  88
EFFINGHAM*     SUNNY     78  65  65 S3        29.90F HX  80
MARION         CLOUDY    84  70  61 S12       29.86F HX  88
MT. VERNON       N/A     84  70  62 SW7       29.86F HX  88
CENTRALIA*     CLOUDY    83  69  62 CALM      29.86F HX  86
SALEM*         SUNNY     84  67  55 CALM      29.87F HX  86
METROPOLIS*    PTSUNNY   84  72  67 SW12      29.88S HX  90
$$

ILZ067-068-072-073-078-083-087-091-272000-
SOUTHEAST ILLINOIS

CITY           SKY/WX    TMP DP  RH WIND       PRES   REMARKS
LAWRENCEVILLE  PTSUNNY   81  68  64 NW6       29.87F HX  84
FLORA*         MOSUNNY   84  66  55 NW3       29.87F HX  86
FAIRFIELD*     PTSUNNY   82  67  60 CALM      29.85F HX  84
HARRISBURG*    MOSUNNY   86  71  60 SW12G17   29.85F HX  91
ROBINSON*      SUNNY     77  65  66 CALM      29.88F
CARMI*         LGT RAIN  85  71  63 W3        29.84F HX  90
$$

ABBREVIATIONS USED IN REMARKS
   TC - TEMPERATURE IN CELSIUS
  WCI - WIND CHILL INDEX
   HX - HEAT INDEX
  VSB - VISIBILITY
$$





USA.gov is the U.S. government's official web portal to all federal, state and local government web resources and services.